Terminal Aerodrome Forecast
Issued by NWS State College, PA

Home | Current Version | Previous Version | Text Only | Print | Product List | Glossary On
Versions: 1 2 3 4 5 6 7 8 9 10 11 12 13 14 15 16 17 18 19 20 21 22 23 24 25 26 27 28 29 30 31 32 33 34 35 36 37 38 39 40 41 42 43 44 45 46 47 48 49 50
000
FTUS41 KCTP 021137
TAFIPT
TAF
KIPT 021137Z 0212/0312 29006KT 5SM -SHSN BR OVC030
     FM021400 29013G21KT P6SM BKN035
     FM021800 29014G24KT P6SM SCT040
     FM030000 29010KT P6SM BKN250=

USA.gov is the U.S. government's official web portal to all federal, state and local government web resources and services.